Rock Springs, WY

12:50 AM MDT on September 25, 2016 (GMT -0600)
Rock Springs-Sweetwater

Weather History for KRKS - May, 2013

Change the Weather History Date:

Friday, May 24, 2013

  Actual Average Record
Temperature  
Mean Temperature 55 °F 53 °F  
Max Temperature 71 °F 67 °F 80 °F (2001)
Min Temperature 38 °F 40 °F 30 °F (2002)
Degree Days  
Heating Degree Days 10 12  
Month to date heating degree days 301 368  
Since 1 July heating degree days 7514 7900  
Cooling Degree Days 0 0  
Month to date cooling degree days 1 0  
Year to date cooling degree days 1 0  
Growing Degree Days 4 (Base 50)    
Moisture  
Dew Point 20 °F    
Average Humidity 34    
Maximum Humidity 59    
Minimum Humidity 9    
Precipitation  
Precipitation 0.00 in 0.03 in 0.94 in (1957)
Month to date precipitation 0.56 0.94  
Year to date precipitation 0.56 3.46  
Sea Level Pressure  
Sea Level Pressure 29.89 in    
Wind  
Wind Speed 11 mph (West)    
Max Wind Speed 32 mph    
Max Gust Speed 38 mph    
Visibility 10 miles    
Events      
T = Trace of Precipitation, MM = Missing Value Source: NWS Daily Summary

Daily Weather History Graph

Daily Weather History Graph

Search for Another Location

Airport or City:

Trip Planner

Search our weather history database for the weather conditions in past years. The results will help you decide how hot, cold, wet, or windy it might be!

Date:

Astronomy

May. 24, 2013 Rise Set
Actual Time 5:48 AM MDT 8:37 PM MDT
Civil Twilight 5:16 AM MDT 9:10 PM MDT
Nautical Twilight 4:35 AM MDT 9:51 PM MDT
Astronomical Twilight 3:48 AM MDT 10:39 PM MDT
Moon 8:23 PM MDT (5/24) 5:24 AM MDT (5/24)
Length of Visible Light 15h 54m
Length of Day
14h 48m
Full, 100% of the Moon is Illuminated
May 24
Full
May 24
Full
May 31
Last Quarter
Jun 8
New
Jun 16
First Quarter

Hourly Weather History & Observations

Time (MDT) Temp. Windchill Dew Point Humidity Pressure Visibility Wind Dir Wind Speed Gust Speed Precip Events Conditions
12:54 AM 51.1 °F - 26.1 °F 38% 29.70 in 10.0 mi West 25.3 mph 34.5 mph N/A   Clear
1:54 AM 46.9 °F - 26.1 °F 44% 29.77 in 10.0 mi WSW 25.3 mph 34.5 mph N/A   Clear
2:54 AM 43.0 °F 36.4 °F 25.0 °F 49% 29.83 in 10.0 mi WSW 12.7 mph - N/A   Clear
3:54 AM 42.1 °F 33.3 °F 25.0 °F 51% 29.84 in 10.0 mi West 19.6 mph - N/A   Clear
4:54 AM 39.9 °F 32.5 °F 25.0 °F 55% 29.86 in 10.0 mi WSW 12.7 mph - N/A   Clear
5:54 AM 37.9 °F 29.6 °F 25.0 °F 60% 29.91 in 10.0 mi WSW 13.8 mph - N/A   Clear
6:54 AM 41.0 °F 33.5 °F 26.1 °F 55% 29.93 in 10.0 mi WSW 13.8 mph - N/A   Clear
7:54 AM 44.1 °F 37.1 °F 26.1 °F 49% 29.95 in 10.0 mi WSW 15.0 mph - N/A   Clear
8:54 AM 46.9 °F - 26.1 °F 44% 29.97 in 10.0 mi WSW 10.4 mph - N/A   Clear
9:54 AM 51.1 °F - 23.0 °F 33% 29.98 in 10.0 mi SSW 8.1 mph - N/A   Clear
10:54 AM 52.0 °F - 16.0 °F 24% 29.97 in 10.0 mi SW 9.2 mph - N/A   Clear
11:54 AM 57.0 °F - 19.0 °F 23% 29.96 in 10.0 mi WSW 5.8 mph - N/A   Clear
12:54 PM 60.1 °F - 19.9 °F 21% 29.93 in 10.0 mi Calm Calm - N/A   Clear
1:54 PM 63.0 °F - 19.9 °F 19% 29.91 in 10.0 mi Variable 5.8 mph - N/A   Clear
2:54 PM 66.9 °F - 18.0 °F 15% 29.90 in 10.0 mi SSW 10.4 mph 16.1 mph N/A   Clear
3:54 PM 71.1 °F - 10.9 °F 10% 29.86 in 10.0 mi SW 18.4 mph 27.6 mph N/A   Clear
4:54 PM 69.1 °F - 12.9 °F 11% 29.87 in 10.0 mi WSW 20.7 mph 27.6 mph N/A   Clear
5:54 PM 69.1 °F - 14.0 °F 12% 29.88 in 10.0 mi West 18.4 mph 25.3 mph N/A   Clear
6:54 PM 66.0 °F - 14.0 °F 13% 29.88 in 10.0 mi WNW 8.1 mph - N/A   Scattered Clouds
7:54 PM 64.0 °F - 15.1 °F 15% 29.88 in 10.0 mi West 5.8 mph - N/A   Mostly Cloudy
8:54 PM 62.1 °F - 14.0 °F 15% 29.88 in 10.0 mi WNW 4.6 mph - N/A   Clear
9:54 PM 57.0 °F - 14.0 °F 18% 29.90 in 10.0 mi North 6.9 mph - N/A   Clear
10:54 PM 55.0 °F - 14.0 °F 20% 29.90 in 10.0 mi North 6.9 mph - N/A   Clear
11:54 PM 54.0 °F - 12.9 °F 20% 29.88 in 10.0 mi North 3.5 mph - N/A   Clear